Tracking 23764 objects as of 17-Oct-2021
HD Live streaming from Space Station
objects crossing your sky now

MARCOPOLO 2 R/B(PAM-D)

Track MARCOPOLO 2 R/B(PAM-D) now!


NORAD ID: 20764
Int'l Code: 1990-074C
Perigee: 419.5 km
Apogee: 37,124.5 km
Inclination: 20.6 °
Period: 661.3 minutes
Semi major axis: 25143 km
RCS: 3.0298 m2 (large)
Launch date: August 18, 1990
Source: United States (US)
Launch site: AIR FORCE EASTERN TEST RANGE (AFETR)

Note: This is a ROCKET BODY
aabbcc
Your satellite tracking list
Your tracking list is empty




NASA's NSSDC Master Catalog

Two Line Element Set (TLE):
1 20764U 90074C   21289.17085850  .00000157  00000-0  91005-3 0  9996
2 20764  20.6007 126.4970 7299230 109.8716 337.0688  2.17759464246562
Source of the keplerian elements: AFSPC